Regional Weather Roundup
Issued by NWS

Home | Current Version | Previous Version | Graphics & Text | Print | Product List | Glossary On
Versions: 1 2 3 4 5 6 7 8 9 10 11 12 13 14 15 16 17 18 19 20 21 22 23 24 25 26 27 28 29 30 31 32 33 34 35 36 37 38 39 40 41 42 43 44 45 46 47 48 49 50
000
ASUS43 KLOT 020600
RWRIL

ILLINOIS REGIONAL WEATHER ROUNDUP
NATIONAL WEATHER SERVICE CHICAGO/ROMEOVILLE IL
100 AM CDT WED SEP 02 2015

NOTE: "FAIR" INDICATES FEW OR NO CLOUDS BELOW 12,000 FEET WITH NO
SIGNIFICANT WEATHER AND/OR OBSTRUCTIONS TO VISIBILITY.

* THESE STATIONS ARE NOT UNDER NWS QUALITY CONTROL. THEY ALSO MAY NOT
  REPORT WEATHER SUCH AS PRECIPITATION OR FOG.

ILZ001-002-007-009-015-016-024-020700-
NORTHWEST ILLINOIS

CITY           SKY/WX    TMP DP  RH WIND       PRES   REMARKS
MOLINE         FAIR      76  68  76 CALM      30.02S
6HR MIN TEMP:  75; 6HR MAX TEMP:  85;

STERLING*      FAIR     N/A N/A N/A CALM      30.01S
$$

ILZ003-004-008-010-011-017-018-020700-
NORTH CENTRAL ILLINOIS

CITY           SKY/WX    TMP DP  RH WIND       PRES   REMARKS
ROCKFORD       MOCLDY    72  68  87 CALM      30.04S
6HR MIN TEMP:  72; 6HR MAX TEMP:  83;

FREEPORT*      FAIR      73  68  86 SW8       30.04S
$$

ILZ005-006-012>014-019>023-020700-
NORTHEAST ILLINOIS

CITY           SKY/WX    TMP DP  RH WIND       PRES   REMARKS
CHICAGO-OHARE  FAIR      76  70  82 SW6       30.03S
6HR MIN TEMP:  76; 6HR MAX TEMP:  85;

CHICAGO-MIDWAY FAIR      78  69  73 SW8       30.04S HX  80
6HR MIN TEMP:  78; 6HR MAX TEMP:  87;

AURORA         FAIR      73  69  87 SW6       30.05S
6HR MIN TEMP:  73; 6HR MAX TEMP:  84;

LANSING*       FAIR      72  68  87 SW6       30.05S
WAUKEGAN       FAIR      76  71  85 SW7       30.01F
6HR MIN TEMP:  76; 6HR MAX TEMP:  82;

DUPAGE AIRPORT FAIR      74  69  85 SW9       30.04S
6HR MIN TEMP:  73; 6HR MAX TEMP:  83;

WHEELING       FAIR      78  70  76 SW7       30.04S HX  80
6HR MIN TEMP:  78; 6HR MAX TEMP:  86;

NORTHERLY ISL    N/A     78  68  71 W9          N/A  HX  80
$$

LMZ740>746-020700-
SOUTHERN LAKE MICHIGAN

STATION/POSITION SKY/WX   TEMP    WIND        PRES    VSBY  WAVE
                          AIR SEA DIR/SP/G                  HT/PER
                          (F)     (DEG/KT/KT) (MB)    (MI)  (FT/S)
SOUTHERN BUOY              72 70  190/ 10/ 10 1016.0F
WILMETTE HARBOR            69 59   10/  6/  8   N/A           1/ 2
HARRISON CRIB              78     210/ 14/ 17   N/A
BURNHAM HARBOR             78     230/  6/ 12   N/A
CALUMET HARBOR             77     210/  9/ 12   N/A
BURNS HARBOR               76     200/ 11/ 14 1017.9S
MICHIGAN CITY              76     180/ 10/ 11   N/A
MICHIGAN CITY 6N           76 72  220/  8/ 12   N/A           1/ 3
ST. JOSEPH                 74 73  230/  6/  8   N/A           1/ 3
$$

ILZ025>027-034>036-040-047-049-050-058-095>099-020700-
WEST-CENTRAL ILLINOIS

CITY           SKY/WX    TMP DP  RH WIND       PRES   REMARKS
QUINCY         FAIR      73  68  84 S5        30.05F
$$

ILZ028>032-037-038-041>044-048-051>054-059>061-020700-
CENTRAL ILLINOIS

CITY           SKY/WX    TMP DP  RH WIND       PRES   REMARKS
DECATUR        FAIR      76  68  76 S6        30.08F
PEORIA         FAIR      75  68  78 S5        30.06S
6HR MIN TEMP:  75; 6HR MAX TEMP:  88;

SPRINGFIELD    FAIR      76  70  82 S8        30.07S
6HR MIN TEMP:  76; 6HR MAX TEMP:  87;

TAYLORVILLE    NOT AVBL
$$

ILZ033-039-045-046-055>057-062-063-020700-
EAST-CENTRAL ILLINOIS

CITY           SKY/WX    TMP DP  RH WIND       PRES   REMARKS
CHAMPAIGN      FAIR      71  69  93 S5        30.09F
MATTOON        FAIR      73  67  81 S6        30.09S
$$

ILZ079-100>102-020700-
SOUTHWEST ILLINOIS

CITY           SKY/WX    TMP DP  RH WIND       PRES   REMARKS
BELLEVILLE     FAIR      72  72 100 CALM      30.07S FOG
CAHOKIA*       FAIR      74  69  85 SE3       30.07S
$$

ILZ064>066-069>071-074>076-080>082-084>086-088>090-092>094-020700-
SOUTH-CENTRAL ILLINOIS

CITY           SKY/WX    TMP DP  RH WIND       PRES   REMARKS
CARBONDALE     FAIR      69  68  96 CALM      30.09S FOG
6HR MIN TEMP:  69; 6HR MAX TEMP:  82;

MT. VERNON     FAIR      68  63  83 CALM      30.11S
$$

ILZ067-068-072-073-078-083-087-091-020700-
SOUTHEAST ILLINOIS

CITY           SKY/WX    TMP DP  RH WIND       PRES   REMARKS
LAWRENCEVILLE  FAIR      69  68  96 CALM      30.10F FOG
FLORA*         FAIR      68  66  93 CALM      30.10S
ROBINSON*      FAIR      67  66  97 CALM      30.11S FOG
$$

ABBREVIATIONS USED IN REMARKS
   TC - TEMPERATURE IN CELSIUS
  WCI - WIND CHILL INDEX
   HX - HEAT INDEX
  VSB - VISIBILITY
$$



USA.gov is the U.S. government's official web portal to all federal, state and local government web resources and services.